Regional Weather Roundup
Issued by NWS Charleston, WV

Home | Current Version | Previous Version | Graphics & Text | Print | Product List | Glossary On
Versions: 1 2 3 4 5 6 7 8 9 10 11 12 13 14 15 16 17 18 19 20 21 22 23 24 25 26 27 28 29 30 31 32 33 34 35 36 37 38 39 40 41 42 43 44 45 46 47 48 49 50
000
ASUS41 KRLX 290910
RWRRLX
West Virginia Regional Weather Roundup
National Weather Service Charleston WV
400 AM EST MON DEC 29 2014

Note: "fair" indicates few or no clouds below 12,000 feet with no
significant weather and/or obstructions to visibility.

WVZ003-291000-
Northern Panhandle of West Virginia

CITY           SKY/WX    TMP DP  RH WIND       PRES   REMARKS
WHEELING       CLOUDY    33  28  81 N5        30.17F
$$

WVZ009-291000-
Northwest West Virginia

CITY           SKY/WX    TMP DP  RH WIND       PRES   REMARKS
PARKERSBURG    CLOUDY    33  30  88 CALM      30.22S
$$

WVZ006-291000-
Western West Virginia

CITY           SKY/WX    TMP DP  RH WIND       PRES   REMARKS
HUNTINGTON     CLOUDY    34  32  92 N3        30.19R
$$

WVZ015-291000-
West Central West Virginia

CITY           SKY/WX    TMP DP  RH WIND       PRES   REMARKS
CHARLESTON     CLOUDY    37  33  85 N3        30.17R
$$

WVZ022-031-291000-
North Central West Virginia

CITY           SKY/WX    TMP DP  RH WIND       PRES   REMARKS
CLARKSBURG     CLOUDY    35  33  92 CALM      30.16F
MORGANTOWN     CLOUDY    34  30  85 CALM      30.17S
$$

WVZ025-035-042-045-291000-
Southern West Virginia

CITY           SKY/WX    TMP DP  RH WIND       PRES   REMARKS
BECKLEY        CLOUDY    36  34  92 N5        30.11R FOG
LOGAN          FOG       36  36 100 CALM      30.13S VSB<1/4
BLUEFIELD      CLOUDY    42  39  89 W3        30.08S FOG
LEWISBURG      CLOUDY    41  38  87 CALM      30.09R
$$

WVZ047-291000-
Northern Mountains of West Virginia

CITY           SKY/WX    TMP DP  RH WIND       PRES   REMARKS
ELKINS         CLOUDY    34  33  96 CALM      30.13S
$$

WVZ052-291000-
Eastern Panhandle of West Virginia

CITY           SKY/WX    TMP DP  RH WIND       PRES   REMARKS
MARTINSBURG    CLOUDY    41  28  60 N10       30.16S
PETERSBURG     CLOUDY    40  31  71 CALM      30.15F
$$



USA.gov is the U.S. government's official web portal to all federal, state and local government web resources and services.